Weather History for West Palm Beach, FL

Change the Weather History Date:

Thursday, January 31, 2013

  Actual Average Record
Temperature  
Mean Temperature 63 °F 66 °F  
Max Temperature 72 °F 75 °F 87 °F (1991)
Min Temperature 53 °F 58 °F 32 °F (1966)
Degree Days  
Heating Degree Days 2 2  
Month to date heating degree days 5 88  
Since 1 July heating degree days 48 157  
Cooling Degree Days 0 4  
Month to date cooling degree days 221 108  
Year to date cooling degree days 221 108  
Growing Degree Days 14 (Base 50)    
Moisture  
Dew Point 57 °F    
Average Humidity 71    
Maximum Humidity 97    
Minimum Humidity 44    
Precipitation  
Precipitation 0.01 in 0.09 in 2.13 in (1935)
Month to date precipitation 0.79 3.13  
Year to date precipitation 0.79 3.13  
Snow  
Snow 0.00 in - - ()
Month to date snowfall 0.0  
Since 1 July snowfall 0.0  
Snow Depth 0.00 in    
Sea Level Pressure  
Sea Level Pressure 30.07 in    
Wind  
Wind Speed 9 mph (NW)    
Max Wind Speed 24 mph    
Max Gust Speed 29 mph    
Visibility 10 miles    
Events Rain    
T = Trace of Precipitation, MM = Missing Value Source: NWS Daily Summary

Daily Weather History Graph

Daily Weather History Graph

Search for Another Location

Airport:

Trip Planner

Search our weather history database for the weather conditions in past years. The results will help you decide how hot, cold, wet, or windy it might be!

Date:

Astronomy

Jan. 31, 2013 Rise Set
Actual Time 7:05 AM EST 6:02 PM EST
Civil Twilight 6:41 AM EST 6:26 PM EST
Nautical Twilight 6:13 AM EST 6:54 PM EST
Astronomical Twilight 5:46 AM EST 7:21 PM EST
Moon 10:28 PM EST 9:35 AM EST
Length of Visible Light 11h 44m
Length of Day
10h 56m
Waning Gibbous, 80% of the Moon is Illuminated
Jan 31
Waning Gibbous
Feb 3
Last Quarter
Feb 10
New
Feb 17
First Quarter
Feb 25
Full

Hourly Weather History & Observations

Time (EST) Temp. Dew Point Humidity Pressure Visibility Wind Dir Wind Speed Gust Speed Precip Events Conditions
12:53 AM 71.1 °F 66.9 °F 87% 29.99 in 10.0 mi South 6.9 mph - N/A   Partly Cloudy
1:53 AM 70.0 °F 66.9 °F 90% 29.98 in 10.0 mi SSW 6.9 mph - N/A   Partly Cloudy
2:53 AM 70.0 °F 66.9 °F 90% 29.95 in 10.0 mi South 8.1 mph - N/A   Clear
3:53 AM 70.0 °F 66.9 °F 90% 29.95 in 10.0 mi South 8.1 mph - N/A   Clear
4:53 AM 70.0 °F 68.0 °F 93% 29.96 in 10.0 mi South 5.8 mph - N/A   Partly Cloudy
5:53 AM 71.1 °F 69.1 °F 93% 29.96 in 10.0 mi South 6.9 mph - N/A   Scattered Clouds
6:53 AM 71.1 °F 69.1 °F 93% 29.98 in 10.0 mi SSW 8.1 mph - N/A   Mostly Cloudy
7:42 AM 71.6 °F 69.8 °F 94% 30.02 in 10.0 mi West 18.4 mph 21.9 mph N/A   Mostly Cloudy
7:53 AM 66.9 °F 64.9 °F 93% 30.04 in 10.0 mi NW 24.2 mph 28.8 mph 0.01 in Rain Light Rain
8:00 AM 62.6 °F 60.8 °F 94% 30.05 in 10.0 mi NW 20.7 mph 28.8 mph 0.00 in Rain Light Rain
8:16 AM 62.6 °F 60.8 °F 94% 30.06 in 10.0 mi NW 19.6 mph 26.5 mph 0.00 in Rain Light Rain
8:48 AM 62.6 °F 60.8 °F 94% 30.08 in 10.0 mi NW 13.8 mph - 0.00 in   Overcast
8:53 AM 63.0 °F 60.1 °F 90% 30.09 in 10.0 mi NNW 17.3 mph - 0.00 in   Overcast
8:59 AM 62.6 °F 60.8 °F 94% 30.09 in 10.0 mi NNW 11.5 mph - N/A   Overcast
9:15 AM 62.6 °F 59.0 °F 88% 30.09 in 10.0 mi NW 11.5 mph - N/A   Overcast
9:53 AM 62.1 °F 57.9 °F 86% 30.11 in 10.0 mi NW 15.0 mph - N/A   Overcast
10:17 AM 62.6 °F 57.2 °F 82% 30.12 in 10.0 mi NNW 16.1 mph - N/A   Overcast
10:47 AM 62.6 °F 57.2 °F 82% 30.12 in 10.0 mi NW 10.4 mph - N/A   Overcast
10:53 AM 63.0 °F 57.0 °F 81% 30.12 in 10.0 mi WNW 12.7 mph - N/A   Overcast
11:02 AM 62.6 °F 57.2 °F 82% 30.11 in 10.0 mi NW 13.8 mph - N/A   Overcast
11:42 AM 62.6 °F 53.6 °F 72% 30.11 in 10.0 mi NW 10.4 mph - N/A   Overcast
11:49 AM 62.6 °F 51.8 °F 68% 30.11 in 10.0 mi NNW 11.5 mph - N/A   Overcast
11:53 AM 62.1 °F 50.0 °F 65% 30.10 in 10.0 mi NNW 10.4 mph - N/A   Overcast
12:53 PM 64.0 °F 48.9 °F 58% 30.09 in 10.0 mi NNW 8.1 mph - N/A   Overcast
1:53 PM 60.1 °F 55.0 °F 83% 30.07 in 10.0 mi NNW 8.1 mph - 0.00 in Rain Light Rain
2:53 PM 64.9 °F 50.0 °F 58% 30.06 in 10.0 mi NW 11.5 mph - 0.00 in   Overcast
3:53 PM 64.9 °F 48.0 °F 54% 30.07 in 10.0 mi NNW 10.4 mph - N/A   Mostly Cloudy
4:53 PM 66.0 °F 51.1 °F 59% 30.09 in 10.0 mi NNW 3.5 mph - N/A   Mostly Cloudy
5:53 PM 66.9 °F 53.1 °F 61% 30.09 in 10.0 mi NNW 3.5 mph - N/A   Mostly Cloudy
6:53 PM 66.0 °F 52.0 °F 60% 30.12 in 10.0 mi North 8.1 mph - N/A   Scattered Clouds
7:53 PM 64.0 °F 51.1 °F 63% 30.13 in 10.0 mi NNW 5.8 mph - N/A   Scattered Clouds
8:53 PM 61.0 °F 41.0 °F 48% 30.16 in 10.0 mi NNW 9.2 mph - N/A   Partly Cloudy
9:53 PM 59.0 °F 37.0 °F 44% 30.17 in 10.0 mi NNW 10.4 mph - N/A   Partly Cloudy
10:53 PM 55.9 °F 37.9 °F 51% 30.18 in 10.0 mi NNW 6.9 mph - N/A   Partly Cloudy
11:53 PM 55.0 °F 37.9 °F 53% 30.18 in 10.0 mi NNW 8.1 mph - N/A   Partly Cloudy